This demonstration page uses our WeatherBlox Daily Observations layout. Learn more.

Left ArrowRight Arrow

Hourly Observations for February 19, 2022

Temp ( °F °C ) Dew Point ( °F °C ) Humidity (%) Winds ( mph kmh ) Pressure ( in mb ) Visibility ( mi km ) Precip ( " mm )
12:56 am 00:56 Mostly Cloudy 24 -4.4 14 -10 65 65 N 10 17 30.37 1029 10 16 0.00 0.00
1:56 am 01:56 Cloudy 25 -3.9 14 -10 63 63 N 7 11 30.39 1029 10 16 0.00 0.00
2:56 am 02:56 Cloudy 25 -3.9 7 -13.9 46 46 NNE 9 15 30.39 1029 10 16 0.00 0.00
3:56 am 03:56 Cloudy 24 -4.4 7 -13.9 48 48 NNE 6 9 30.39 1029 10 16 0.00 0.00
4:56 am 04:56 Cloudy 22 -5.6 8 -13.3 55 55 E 7 11 30.39 1029 10 16 0.00 0.00
5:56 am 05:56 Cloudy 21 -6.1 8 -13.3 57 57 ESE 10 17 30.42 1030 10 16 0.00 0.00
6:56 am 06:56 Clear 16 -8.9 5 -15 62 62 SE 7 11 30.45 1031 10 16 0.00 0.00
7:56 am 07:56 Sunny 16 -8.9 5 -15 62 62 SE 9 15 30.44 1031 10 16 0.00 0.00
8:56 am 08:56 Sunny 21 -6.1 5 -15 50 50 S 15 24 30.44 1031 10 16 0.00 0.00
9:56 am 09:56 Sunny 26 -3.3 7 -13.9 44 44 S 20 31 30.41 1030 10 16 0.00 0.00
10:56 am 10:56 Sunny 30 -1.1 10 -12.2 43 43 S 20 31 30.39 1029 10 16 0.00 0.00
11:56 am 11:56 Sunny 34 1.1 10 -12.2 37 37 S 20 31 30.35 1028 10 16 0.00 0.00
12:56 pm 12:56 Sunny 38 3.3 12 -11.1 34 34 S 25 41 30.28 1025 10 16 0.00 0.00
1:56 pm 13:56 Sunny 41 5 12 -11.1 30 30 SSW 24 39 30.20 1023 10 16 0.00 0.00
2:56 pm 14:56 Sunny 43 6.1 10 -12.2 26 26 S 26 43 30.13 1020 10 16 0.00 0.00
3:56 pm 15:56 Sunny 44 6.7 11 -11.7 26 26 S 25 41 30.07 1018 10 16 0.00 0.00
4:56 pm 16:56 Sunny 45 7.2 12 -11.1 26 26 S 23 37 30.03 1017 10 16 0.00 0.00
5:56 pm 17:56 Sunny 43 6.1 12 -11.1 28 28 S 20 31 29.99 1016 10 16 0.00 0.00
6:56 pm 18:56 Clear 40 4.4 13 -10.6 33 33 S 16 26 29.97 1015 10 16 0.00 0.00
7:56 pm 19:56 Clear 39 3.9 15 -9.4 38 38 S 15 24 29.95 1014 10 16 0.00 0.00
8:56 pm 20:56 Clear 38 3.3 16 -8.9 41 41 S 17 28 29.92 1013 10 16 0.00 0.00
9:56 pm 21:56 Clear 39 3.9 19 -7.2 45 45 S 15 24 29.89 1012 10 16 0.00 0.00
10:56 pm 22:56 Clear 39 3.9 23 -5 53 53 SSW 17 28 29.85 1011 10 16 0.00 0.00
11:56 pm 23:56 Clear 38 3.3 25 -3.9 60 60 SSW 18 30 29.82 1010 10 16 0.00 0.00

Powered by AerisWeather